Regional Weather Roundup
Issued by NWS

Home | Current Version | Previous Version | Text Only | Print | Product List | Glossary Off
Versions: 1 2 3 4 5 6 7 8 9 10 11 12 13 14 15 16 17 18 19 20 21 22 23 24 25 26 27 28 29 30 31 32 33 34 35 36 37 38 39 40 41 42 43 44 45 46 47 48 49 50

000
ASUS43 KDTX 280710
RWRMI
MICHIGAN HOURLY REGIONAL WEATHER ROUNDUP
NATIONAL WEATHER SERVICE DETROIT/PONTIAC MI
200 AM EST SUN DEC 28 2014

NOTE: "FAIR" INDICATES FEW OR NO CLOUDS BELOW 12,000 FEET WITH NO
SIGNIFICANT WEATHER AND/OR OBSTRUCTION TO VISIBILITY.

MIZ047>049-052>055-059>063-066>070-074>076-081>083-280800-
SOUTHEAST LOWER MICHIGAN

CITY           SKY/WX    TMP DP  RH WIND       PRES   REMARKS
ADRIAN         CLOUDY    35  30  82 NW7       30.01F WCI  29
ALMA           CLOUDY    34  32  92 W6        29.99R WCI  29
ANN ARBOR      CLOUDY    36  30  79 NW15G22   29.98F WCI  27
BAD AXE        CLOUDY    34  31  88 NW10G16   29.95S WCI  26
CARO           CLOUDY    34  33  93 W5        29.95F WCI  30
DETROIT CITY   CLOUDY    39  31  72 W10       29.99R WCI  32
DETROIT        CLOUDY    37  31  78 W14G23    29.99S WCI  28
FLINT          CLOUDY    37  30  75 W8        29.98R WCI  31
GROSSE ILE     CLOUDY    37  32  81 W13       29.97F WCI  29
HILLSDALE      CLOUDY    35  32  89 NW8       30.00S WCI  28
HOWELL         CLOUDY    34  30  85 W9        29.98R WCI  27

CITY           SKY/WX    TMP DP  RH WIND       PRES   REMARKS
JACKSON        CLOUDY    35  28  75 W7        29.99S WCI  29
LAMBERTVILLE   CLOUDY    37  32  81 W7        30.00F WCI  32
LANSING        CLOUDY    35  30  82 W8        30.00R WCI  29
LAPEER         CLOUDY    35  31  85 W6        29.96S WCI  30
MASON          CLOUDY    34  29  82 W6        29.99S WCI  29
MONROE         CLOUDY    37  32  81 W9G17     29.98F WCI  31
MT. CLEMENS    CLOUDY    38  34  86 W9        29.96R WCI  31
PONTIAC        CLOUDY    35  29  78 W15       29.96R WCI  25
PORT HOPE        N/A     36  29  75 NW12G17   29.93R WCI  28
PORT HURON     CLOUDY    37  32  81 W7        29.97R WCI  32
TRI CITIES     CLOUDY    36  30  79 NW10      29.98S WCI  28
TROY           CLOUDY    39  31  73 W8        29.99S WCI  33
SAGINAW HB     CLOUDY    36  34  93 W7        29.97S WCI  30
$$
MIZ043>046-050>051-056>058-064>065-071>073-077>080-280800-
SOUTHWEST LOWER MICHIGAN

CITY           SKY/WX    TMP DP  RH WIND       PRES   REMARKS
BATTLE CREEK   CLOUDY    35  29  78 W6        30.01S WCI  30
BENTON HARBOR  CLOUDY    35  28  75 NW8       30.06R WCI  29
BIG RAPIDS     CLOUDY    33  32  98 W5        29.97S WCI  28
COLDWATER      CLOUDY    34  29  81 W8        30.02R WCI  27
FREMONT        CLOUDY    33  32  96 NW12G18   30.00S WCI  24
HOLLAND        CLOUDY    37  30  75 NW13G21   30.04R WCI  29
GRAND RAPIDS   CLOUDY    35  32  88 W7        30.01R WCI  29
IONIA          CLOUDY    36  32  88 NW6       29.99S WCI  31
KALAMAZOO      CLOUDY    35  29  78 W7        30.03R WCI  29
LUDINGTON      CLOUDY    36  28  75 W13       30.02S WCI  27
MARSHALL       CLOUDY    33  30  88 SW6       30.00S WCI  27
MOUNT PLEASANT CLOUDY    34  32  92 CALM      29.97S
MUSKEGON       CLOUDY    35  29  78 NW12      30.03R WCI  27
SOUTH HAVEN    CLOUDY    37  30  75 NW8       30.05R WCI  30
$$
MIZ016>042-280800-
NORTHERN LOWER MICHIGAN

CITY           SKY/WX    TMP DP  RH WIND       PRES   REMARKS
ALPENA         CLOUDY    31  22  69 NW8       29.94S WCI  23
BEAVER ISLAND  PTCLDY    30  22  72 W8        29.95S WCI  22
BELLAIRE       CLOUDY    33  24  69 W3        29.96F
CADILLAC       CLOUDY    31  28  91 W6        29.94S WCI  25
CHARLEVOIX     CLOUDY    32  23  68 NW15      29.97F WCI  22
FRANKFORT      CLOUDY    32  27  81 NW15G22   29.99S WCI  22
GAYLORD        CLOUDY    29  23  78 W6        29.91F WCI  23
GRAYLING       CLOUDY    31  29  94 W7        29.94S WCI  24
HARBOR SPRINGS CLOUDY    31  21  66 W9        29.94S WCI  23
HOUGHTON LAKE  CLOUDY    31  28  89 W7        29.94F WCI  24
MANISTEE       CLOUDY    34  23  64 NW16      30.01R WCI  23
OSCODA         CLOUDY    32  25  76 W6        29.94F WCI  26
PELLSTON       CLOUDY    31  21  66 NW16      29.94S WCI  20
ROGERS CITY    CLOUDY    31  26  83 W10       29.94S WCI  22
TRAVERSE CITY  CLOUDY    33  30  88 W8        29.96F WCI  26
$$
MIZ007>008-015-280800-
EASTERN UPPER MICHIGAN

CITY           SKY/WX    TMP DP  RH WIND       PRES   REMARKS
KINROSS        CLOUDY    28  27  93 W10G21    29.90S WCI  19
MACKINAC ISLAN CLOUDY    31  24  77 W16       29.93S WCI  19
NEWBERRY       PTCLDY    24  21  89 W10       29.92S WCI  13
S. S. MARIE    CLOUDY    30  23  75 W15G22    29.87F WCI  19
MUNISING         N/A     24  15  68 SW5       29.95F WCI  18
$$
MIZ004>006-011>014-085-280800-
CENTRAL UPPER MICHIGAN

CITY           SKY/WX    TMP DP  RH WIND       PRES   REMARKS
MANISTIQUE     CLEAR     23  20  89 W8        29.96S WCI  14
ESCANABA       CLEAR     21  18  86 W10       29.97F WCI  10
MENOMINEE      CLEAR     23  18  80 W5        30.02S WCI  17
SAWYER-GWINN   CLEAR     16  12  86 W5        29.92F WCI   9
$$
MIZ001>003-009>011-084-280800-
WESTERN UPPER MICHIGAN

CITY           SKY/WX    TMP DP  RH WIND       PRES   REMARKS
IRON MOUNTAIN    N/A     16  11  80 W7        29.96F WCI   6
HOUGHTON       FLURRIES  22  16  78 W10       29.89F WCI  11
COPPER HARBOR    N/A     27  17  66 N13       29.91F WCI  16
IRONWOOD       PTCLDY    16  10  79 W8        29.94S WCI   5
$$

ABBREVIATIONS USED IN REMARKS
   TC - TEMPERATURE IN CELSIUS
  WCI - WIND CHILL INDEX
   HX - HEAT INDEX
  VSB - VISIBILITY



USA.gov is the U.S. government's official web portal to all federal, state and local government web resources and services.